Location: New Canada
(47.1017°N, 68.5042°W)
Time: 07:20:42
(UTC+00:00)

EO-79 - Pass Details

Date: 09 April 2023
Orbit: 578 x 593 km, 98.0° (Epoch: 03 June)

Event Time Altitude Azimuth Distance (km) Brightness Sun altitude
Rises 08:26:13 0° 354° (N) 2,821 ? -15.4°
Reaches altitude 10° 08:29:45 10° 322° (NW) 1,910 ? -14.9°
Maximum altitude 08:31:10 12° 302° (WNW) 1,802 ? -14.7°
Enters shadow 08:31:46 11° 293° (WNW) 1,820 ? -14.6°
